COSMOS 249 DEB, 3609

Orbit data source: Space-Track

COSMOS 249 DEB, 3609 is space debris in LEO originally from a launch on Sun, 20 Oct 1968 UTC launched from the Tyuratam Missile And Space Complex (TTMTR). Debris objects in space refer to the collection of defunct objects orbiting the Earth. Examples of debris include non-operational satellites, rocket bodies, and fragments generated from explosions, collisions, or faulty payload assembly.

Loading next visibility...
Identifier
3609, 1968-091AB
Orbit
LEO
Country
Flag of CISCIS
Related business
Manufacturer
Unknown
Mission
Spacecraft
Bus & Motor
Unknown
Mass
Unknown
Launch date (UTC)
1968-10-20 (57 years ago)
Launch vehicle
Unknown
Launch site
Tyuratam Missile And Space Complex (TTMTR)
Object type
Payload
Rocket body
Debris
Shape & HBR
Unknown shape, 0.1 m
Radar Cross Section
Small (<0.1 m²)

Expand to show TLE details & history
Last TLE update: 12 hours ago

TLE from 12 hours ago
0 COSMOS 249 DEB
1  3609U 68091AB  25312.56661654  .00003331  00000-0  57384-3 0  9994
2  3609  62.2724  49.1616 0747239  82.5962 285.9278 13.64940982674761
Epoch: 2025-11-08T13:35Z
TLE epoch observation values (Epoch: 2025-11-08T13:35:55.669Z)
Latitude
0.00005°
Longitude
157.18529°
Altitude
907.061 km
Speed
7.455 km/s
True Right ascension
03h 16m 38s
True Declination
0° 00' 00"
Sunlit
Object was in full shadow at epoch
Visualization orbit readout
Latitude
Unknown
Longitude
Unknown
Altitude
Unknown
Speed
Unknown
Apparent Right ascension
Unknown
Apparent Declination
Unknown
Sunlit
N/A
Visualization observer readout
Local Sidereal Time
21:54:38
Azimuth
Unknown
Elevation
Unknown
Doppler factor
Unknown
Orbital elements
Apogee altitude
1,569.316 km
Perigee altitude
464.167 km
Semi-major axis
7,394.879 km
Eccentricity
0.07472
Inclination
62.2724°
RAAN
49.1616°
Arg. of periapsis
82.5962°
True anomaly
277.50793°
Mean anomaly
285.9278°
Eccentric anomaly
281.73594°
Mean motion
3.41308 °/min
Orbital period
105.48 mins
BSTAR
0.00057384
Loading maneuver chart data...
Computing Atmospheric mass density...

Documentation

Showing up to 5 results
|